Weather History for Blacksburg, VA

Change the Weather History Date:

Saturday, November 3, 2012

  Actual Average Record
Temperature  
Mean Temperature 43 °F 47 °F  
Max Temperature 53 °F 61 °F 79 °F (2003)
Min Temperature 32 °F 34 °F 20 °F (1954)
Degree Days  
Heating Degree Days 22 18  
Month to date heating degree days 71 52  
Since 1 July heating degree days 585 579  
Cooling Degree Days 0 0  
Month to date cooling degree days 0 0  
Year to date cooling degree days 716 573  
Moisture  
Dew Point 33 °F    
Average Humidity 71    
Maximum Humidity 100    
Minimum Humidity 41    
Precipitation  
Precipitation 0.22 in 0.10 in 0.85 in (1985)
Month to date precipitation 0.22 0.29  
Year to date precipitation 33.26 35.36  
Snow  
Snow 0.00 in - - ()
Month to date snowfall 0.0  
Since 1 July snowfall 0.6  
Since 1 September snowfall 0.6  
Snow Depth 0.00 in    
Sea Level Pressure  
Sea Level Pressure 30.06 in    
Wind  
Wind Speed 6 mph (WNW)    
Max Wind Speed 12 mph    
Max Gust Speed 16 mph    
Visibility 10 miles    
Events Rain    
T = Trace of Precipitation, MM = Missing Value Source: NWS Daily Summary

Daily Weather History Graph

Daily Weather History Graph

Search for Another Location

Airport:

Trip Planner

Search our weather history database for the weather conditions in past years. The results will help you decide how hot, cold, wet, or windy it might be!

Date:

Astronomy

Nov. 03, 2012 Rise Set
Actual Time 7:48 AM EDT 6:21 PM EDT
Civil Twilight 7:21 AM EDT 6:48 PM EDT
Nautical Twilight 6:50 AM EDT 7:19 PM EDT
Astronomical Twilight 6:20 AM EDT 7:49 PM EDT
Moon 10:03 PM EDT (11/3) 11:49 AM EDT (11/3)
Length of Visible Light 11h 26m
Length of Day
10h 32m
Waning Gibbous, 80% of the Moon is Illuminated
Nov 3
Waning Gibbous
Nov 6
Last Quarter
Nov 13
New
Nov 20
First Quarter
Nov 28
Full

Hourly Weather History & Observations

Time (EDT) Temp. Windchill Dew Point Humidity Pressure Visibility Wind Dir Wind Speed Gust Speed Precip Events Conditions
12:15 AM 41.0 °F 35.8 °F 30.2 °F 65% 30.01 in 10.0 mi WNW 8.1 mph - N/A   Clear
12:35 AM 41.0 °F 35.8 °F 30.2 °F 65% 30.00 in 10.0 mi WNW 8.1 mph - N/A   Clear
12:55 AM 39.2 °F 34.2 °F 30.2 °F 70% 30.01 in 10.0 mi WNW 6.9 mph - N/A   Clear
1:15 AM 39.2 °F 33.6 °F 30.2 °F 70% 30.01 in 10.0 mi WNW 8.1 mph - N/A   Clear
1:35 AM 39.2 °F 33.6 °F 30.2 °F 70% 30.01 in 10.0 mi NW 8.1 mph - N/A   Clear
1:55 AM 37.4 °F 32.8 °F 30.2 °F 75% 30.02 in 10.0 mi WNW 5.8 mph - N/A   Clear
2:15 AM 39.2 °F 34.2 °F 30.2 °F 70% 30.02 in 10.0 mi WNW 6.9 mph - N/A   Clear
2:35 AM 37.4 °F 32.1 °F 30.2 °F 75% 30.02 in 10.0 mi WNW 6.9 mph - N/A   Clear
3:15 AM 37.4 °F 32.1 °F 30.2 °F 75% 30.02 in 10.0 mi WNW 6.9 mph - N/A   Clear
3:35 AM 37.4 °F 33.8 °F 30.2 °F 75% 30.02 in 10.0 mi WNW 4.6 mph - N/A   Clear
3:55 AM 37.4 °F 32.8 °F 30.2 °F 75% 30.02 in 10.0 mi WNW 5.8 mph - N/A   Clear
4:15 AM 35.6 °F 31.7 °F 30.2 °F 81% 30.02 in 10.0 mi NW 4.6 mph - N/A   Clear
4:35 AM 35.6 °F 30.7 °F 30.2 °F 81% 30.02 in 10.0 mi WNW 5.8 mph - N/A   Clear
4:55 AM 35.6 °F 30.7 °F 30.2 °F 81% 30.03 in 10.0 mi NW 5.8 mph - N/A   Clear
5:15 AM 37.4 °F 32.1 °F 30.2 °F 75% 30.03 in 10.0 mi WNW 6.9 mph - N/A   Clear
5:35 AM 35.6 °F 29.2 °F 30.2 °F 81% 30.04 in 10.0 mi WNW 8.1 mph - N/A   Clear
5:55 AM 37.4 °F 30.3 °F 30.2 °F 75% 30.05 in 10.0 mi WNW 10.4 mph 16.1 mph N/A   Clear
6:15 AM 35.6 °F 29.9 °F 30.2 °F 81% 30.05 in 10.0 mi WNW 6.9 mph - N/A   Clear
6:35 AM 35.6 °F 28.6 °F 30.2 °F 81% 30.06 in 10.0 mi WNW 9.2 mph - N/A   Clear
6:55 AM 35.6 °F 30.7 °F 30.2 °F 81% 30.06 in 10.0 mi WNW 5.8 mph - N/A   Clear
7:15 AM 35.6 °F 30.7 °F 30.2 °F 81% 30.07 in 10.0 mi WNW 5.8 mph - N/A   Clear
7:35 AM 35.6 °F 29.9 °F 30.2 °F 81% 30.07 in 10.0 mi WNW 6.9 mph - N/A   Scattered Clouds
7:55 AM 35.6 °F 29.9 °F 30.2 °F 81% 30.07 in 10.0 mi WNW 6.9 mph - N/A   Scattered Clouds
8:15 AM 37.4 °F 31.4 °F 30.2 °F 75% 30.08 in 10.0 mi WNW 8.1 mph - N/A   Scattered Clouds
8:35 AM 37.4 °F 32.1 °F 30.2 °F 75% 30.09 in 10.0 mi WNW 6.9 mph - N/A   Scattered Clouds
8:55 AM 39.2 °F 35.9 °F 32.0 °F 75% 30.10 in 10.0 mi NW 4.6 mph - N/A   Scattered Clouds
9:15 AM 39.2 °F 33.0 °F 32.0 °F 75% 30.10 in 10.0 mi NW 9.2 mph - N/A   Mostly Cloudy
9:35 AM 41.0 °F 35.2 °F 32.0 °F 70% 30.10 in 10.0 mi NW 9.2 mph - N/A   Scattered Clouds
9:55 AM 41.0 °F 35.2 °F 32.0 °F 70% 30.10 in 10.0 mi WNW 9.2 mph - N/A   Clear
10:15 AM 42.8 °F 36.2 °F 32.0 °F 66% 30.11 in 10.0 mi NW 12.7 mph - N/A   Clear
10:35 AM 42.8 °F 37.0 °F 32.0 °F 66% 30.11 in 10.0 mi NW 10.4 mph 16.1 mph N/A   Clear
10:55 AM 42.8 °F 37.5 °F 32.0 °F 66% 30.11 in 10.0 mi WNW 9.2 mph - N/A   Clear
11:15 AM 44.6 °F 40.2 °F 32.0 °F 61% 30.11 in 10.0 mi West 8.1 mph - N/A   Clear
11:35 AM 44.6 °F 39.2 °F 32.0 °F 61% 30.11 in 10.0 mi West 10.4 mph 16.1 mph N/A   Clear
11:55 AM 46.4 °F 41.9 °F 33.8 °F 62% 30.11 in 10.0 mi West 9.2 mph - N/A   Clear
12:15 PM 46.4 °F 42.4 °F 33.8 °F 62% 30.10 in 10.0 mi WSW 8.1 mph - N/A   Clear
12:35 PM 48.2 °F - 33.8 °F 58% 30.10 in 10.0 mi West 8.1 mph - N/A   Clear
12:55 PM 48.2 °F - 33.8 °F 58% 30.09 in 10.0 mi WNW 11.5 mph - N/A   Clear
1:15 PM 48.2 °F - 32.0 °F 54% 30.09 in 10.0 mi WNW 12.7 mph 18.4 mph N/A   Clear
1:35 PM 50.0 °F - 32.0 °F 50% 30.08 in 10.0 mi West 9.2 mph - N/A   Clear
1:55 PM 51.8 °F - 32.0 °F 47% 30.08 in 10.0 mi WNW 10.4 mph - N/A   Clear
2:15 PM 51.8 °F - 30.2 °F 44% 30.08 in 10.0 mi WNW 10.4 mph 18.4 mph N/A   Clear
2:35 PM 51.8 °F - 30.2 °F 44% 30.07 in 10.0 mi West 6.9 mph - N/A   Clear
2:55 PM 53.6 °F - 30.2 °F 41% 30.06 in 10.0 mi West 8.1 mph - N/A   Clear
3:15 PM 53.6 °F - 32.0 °F 44% 30.04 in 10.0 mi West 5.8 mph - N/A   Clear
3:35 PM 53.6 °F - 30.2 °F 41% 30.04 in 10.0 mi West 4.6 mph - N/A   Scattered Clouds
3:55 PM 55.4 °F - 32.0 °F 41% 30.03 in 10.0 mi WNW 4.6 mph - N/A   Mostly Cloudy
4:15 PM 55.4 °F - 32.0 °F 41% 30.05 in 10.0 mi WNW 9.2 mph - N/A   Scattered Clouds
4:35 PM 55.4 °F - 30.2 °F 38% 30.05 in 10.0 mi West 9.2 mph - N/A   Clear
4:55 PM 53.6 °F - 30.2 °F 41% 30.05 in 10.0 mi West 8.1 mph - N/A   Clear
5:15 PM 53.6 °F - 30.2 °F 41% 30.05 in 10.0 mi West 4.6 mph - N/A   Clear
5:35 PM 51.8 °F - 30.2 °F 44% 30.05 in 10.0 mi Calm Calm - N/A   Scattered Clouds
5:55 PM 51.8 °F - 32.0 °F 47% 30.05 in 10.0 mi WNW 6.9 mph - N/A   Mostly Cloudy
6:15 PM 51.8 °F - 32.0 °F 47% 30.05 in 10.0 mi Calm Calm - N/A   Mostly Cloudy
6:35 PM 51.8 °F - 32.0 °F 47% 30.06 in 10.0 mi NW 3.5 mph - N/A   Mostly Cloudy
6:55 PM 50.0 °F - 32.0 °F 50% 30.06 in 10.0 mi WNW 5.8 mph - N/A   Mostly Cloudy
7:15 PM 48.2 °F - 32.0 °F 54% 30.04 in 10.0 mi Calm Calm - N/A   Scattered Clouds
7:35 PM 46.4 °F 42.9 °F 33.8 °F 62% 30.05 in 10.0 mi NW 6.9 mph - N/A   Mostly Cloudy
7:55 PM 48.2 °F - 33.8 °F 58% 30.06 in 10.0 mi NW 3.5 mph - N/A   Overcast
8:15 PM 48.2 °F - 33.8 °F 58% 30.05 in 10.0 mi NW 4.6 mph - N/A   Overcast
8:35 PM 46.4 °F 43.5 °F 37.4 °F 71% 30.06 in 10.0 mi NW 5.8 mph - N/A   Overcast
8:55 PM 46.4 °F - 37.4 °F 71% 30.05 in 10.0 mi Calm Calm - N/A   Overcast
9:15 PM 44.6 °F - 42.8 °F 93% 30.05 in 10.0 mi Calm Calm - N/A Rain Light Rain
9:35 PM 46.4 °F - 42.8 °F 87% 30.07 in 10.0 mi Calm Calm - 0.01 in Rain Rain
9:55 PM 44.6 °F - 42.8 °F 93% 30.09 in 10.0 mi Calm Calm - 0.01 in   Overcast
10:15 PM 44.6 °F 40.2 °F 42.8 °F 93% 30.11 in 10.0 mi South 8.1 mph - 0.03 in Rain Rain
10:35 PM 44.6 °F 43.1 °F 41.0 °F 87% 30.10 in 10.0 mi WSW 3.5 mph - 0.05 in Rain Rain
10:55 PM 42.8 °F 41.1 °F 41.0 °F 93% 30.09 in 7.0 mi SSW 3.5 mph - 0.06 in Rain Rain
11:15 PM 42.8 °F 41.1 °F 42.8 °F 100% 30.08 in 4.0 mi SW 3.5 mph - 0.08 in Rain Heavy Rain
11:35 PM 42.8 °F 40.1 °F 42.8 °F 100% 30.08 in 10.0 mi NNW 4.6 mph - 0.09 in Rain Light Rain
11:55 PM 42.8 °F 40.1 °F 42.8 °F 100% 30.08 in 10.0 mi North 4.6 mph - 0.10 in   Overcast